Miscellaneous Local Product
Issued by NWS Hastings, NE

Home | Current Version | Previous Version | Text Only | Print | Product List | Glossary Off
Versions: 1 2 3 4 5 6 7 8 9 10 11 12 13 14 15 16 17 18 19 20 21 22 23 24 25 26 27 28 29 30 31 32 33 34 35 36 37 38 39 40 41 42 43 44 45 46 47 48 49 50

000
AXUS43 KGID 260902
MISGRI

GID CWA HOURLY WEATHER ROUNDUP
NATIONAL WEATHER SERVICE HASTINGS NE
300 AM CST WED NOV 26 2014

NOTE: "FAIR" INDICATES FEW OR NO CLOUDS BELOW 12,000 FEET WITH NO
SIGNIFICANT WEATHER AND/OR OBSTRUCTIONS TO VISIBILITY.

...SOUTH CENTRAL NEBRASKA...

CITY           SKY/WX    TMP DP  RH WIND       PRES   REMARKS
GRAND ISLAND   PTCLDY    34  26  72 NW13      29.94R WCI  25
HASTINGS       PTCLDY    35  25  66 NW16      29.94R WCI  25
KEARNEY        MOCLDY    37  21  52 W18G28    29.97R WCI  27
ORD            CLOUDY    36  26  67 NW21G29   29.93R WCI  25
YORK           CLEAR     36  28  75 NW17      29.90R WCI  25
AURORA         PTCLDY    35  28  75 NW14      29.92R WCI  25
LEXINGTON      CLOUDY    36  31  84 NW13      29.99R WCI  27
HOLDREGE       CLOUDY    37  27  65 W13       29.98R WCI  29
HEBRON         PTCLDY    38  28  67 W10       29.94R WCI  32

...NEBRASKA PANHANDLE...

CITY           SKY/WX    TMP DP  RH WIND       PRES   REMARKS
CHADRON        CLOUDY    45  23  42 NW13      30.13R
ALLIANCE       CLOUDY    31  21  66 NW25      30.06R WCI  17
SCOTTSBLUFF    CLOUDY    31  25  78 NW15      30.12R WCI  20
SIDNEY         CLOUDY    29  24  82 N20G28    30.08R WCI  16

...WESTERN AND NORTH CENTRAL NEBRASKA...

CITY           SKY/WX    TMP DP  RH WIND       PRES   REMARKS
VALENTINE      CLOUDY    29  21  72 NW25G44   30.02R WCI  14
AINSWORTH      CLOUDY    32  25  73 NW16G33   29.97R WCI  22
ONEILL         CLOUDY    37  30  78 NW25G32   29.90R WCI  25
BROKEN BOW     CLOUDY    37  24  59 NW23G32   29.97R WCI  26
IMPERIAL       CLOUDY    35  23  61 NW16      30.07R WCI  25
NORTH PLATTE   CLOUDY    35  27  72 NW17      30.03R WCI  25
MCCOOK         CLOUDY    37  30  75 NW13      30.05R WCI  29

...EASTERN NEBRASKA...

CITY           SKY/WX    TMP DP  RH WIND       PRES   REMARKS
NORFOLK        CLOUDY    38  32  79 NW20      29.85R WCI  28
SO SIOUX CITY  CLOUDY    35  33  92 NW7       29.84R WCI  29
TEKAMAH        CLOUDY    37  33  85 NW14      29.83R WCI  28
COLUMBUS       CLOUDY    36  27  69 W14       29.89R WCI  27
ALBION         CLOUDY    37  28  69 NW18      29.88R WCI  27
OMAHA EPPLEY   CLOUDY    38  35  89 NW10      29.85R WCI  31
OFFUTT AFB     CLOUDY    39  36  87 W10       29.83S WCI  32
MILLARD        CLOUDY    38  35  86 NW9       29.84R WCI  32
LINCOLN        PTCLDY    37  30  75 W15       29.90R WCI  28
NEBRASKA CITY  CLOUDY    39  33  79 W14       29.86R WCI  31
BEATRICE       MOCLDY    37  32  83 W10       29.91R WCI  29
FALLS CITY     CLOUDY    39  31  72 SW6       29.88F WCI  35

...NORTHERN KANSAS...

CITY           SKY/WX    TMP DP  RH WIND       PRES   REMARKS
GOODLAND       CLOUDY    33  31  92 NW20      30.11R WCI  21
HILL CITY      CLOUDY    43  30  60 NW15G26   30.04R
NORTON         PTSUNNY   39  27  60 W17G25    30.02R WCI  30
PHILLIPSBURG   CLOUDY    45  28  53 W10       30.02R
SMITH CENTER   MOCLDY    39  27  60 NW13      30.01R WCI  32
BELOIT         PTCLDY    43  30  61 W7        29.98S
HAYS           CLOUDY    45  27  49 NW10      30.03R
RUSSELL        CLOUDY    44  30  57 NW16      30.00R
CONCORDIA      CLOUDY    42  30  62 NW9       29.96R
SALINA         CLOUDY    45  31  58 NW10      29.99R
TOPEKA         CLOUDY    44  26  49 SW9       29.95R



USA.gov is the U.S. government's official web portal to all federal, state and local government web resources and services.